• In Hungary
  • List of Countries
  • For 7 days
  • Water Temperature
  • Satellite Maps
  • Weather Map
  • News
  • Weather Widgets
  • user-avatar
    Login

    Hourly Weather Mydlice

    Today, 19 August, Sunday

    Time Temperature Precipitation Wind Pressure Humidity
    00:00 +22°C° 0 mm 1 mps 754 mmHg 69%
    01:00 +22°C° 0 mm 1 mps 754 mmHg 71%
    02:00 +22°C° 0 mm 1 mps 754 mmHg 73%
    03:00 +21°C° 0 mm 1 mps 754 mmHg 74%
    04:00 +21°C° 0 mm 1 mps 754 mmHg 76%
    05:00 +22°C° 0 mm 1 mps 754 mmHg 73%
    06:00 +23°C° 0 mm 1 mps 754 mmHg 71%
    07:00 +24°C° 0 mm 1 mps 754 mmHg 68%
    08:00 +25°C° 0 mm 1 mps 754 mmHg 63%
    09:00 +27°C° 0 mm 1 mps 754 mmHg 57%
    10:00 +28°C° 0 mm 1 mps 754 mmHg 52%
    11:00 +29°C° 0 mm 1 mps 754 mmHg 49%
    12:00 +30°C° 0 mm 1 mps 754 mmHg 46%
    13:00 +31°C° 0 mm 1 mps 753 mmHg 42%
    14:00 +31°C° 0 mm 1 mps 753 mmHg 42%
    15:00 +31°C° 0 mm 1 mps 753 mmHg 42%
    16:00 +31°C° 0 mm 1 mps 753 mmHg 41%
    17:00 +29°C° 0 mm 1 mps 752 mmHg 45%
    18:00 +28°C° 0 mm 1 mps 752 mmHg 49%
    19:00 +27°C° 0 mm 1 mps 752 mmHg 53%
    20:00 +26°C° 0 mm 1 mps 752 mmHg 54%
    21:00 +25°C° 0 mm 1 mps 752 mmHg 56%
    22:00 +24°C° 0 mm 1 mps 752 mmHg 58%
    23:00 +24°C° 0 mm 1 mps 752 mmHg 60%

    Tomorrow, 20 August, Monday

    Time Temperature Precipitation Wind Pressure Humidity
    00:00 +24°C° 0 mm 1 mps 752 mmHg 62%
    01:00 +23°C° 0 mm 1 mps 752 mmHg 64%
    02:00 +23°C° 0 mm 2 mps 751 mmHg 66%
    03:00 +23°C° 0 mm 2 mps 751 mmHg 68%
    04:00 +21°C° 0 mm 2 mps 751 mmHg 69%
    05:00 +23°C° 0.2 mm 2 mps 751 mmHg 68%
    06:00 +24°C° 0.2 mm 2 mps 751 mmHg 67%
    07:00 +24°C° 0.2 mm 2 mps 751 mmHg 67%
    08:00 +26°C° 0 mm 2 mps 751 mmHg 61%
    09:00 +28°C° 0 mm 3 mps 751 mmHg 55%
    10:00 +30°C° 0 mm 3 mps 751 mmHg 49%
    11:00 +30°C° 0 mm 3 mps 751 mmHg 46%
    12:00 +32°C° 0 mm 4 mps 750 mmHg 43%
    13:00 +32°C° 0 mm 4 mps 750 mmHg 40%
    14:00 +32°C° 0 mm 4 mps 750 mmHg 40%
    15:00 +32°C° 0 mm 4 mps 750 mmHg 41%
    16:00 +32°C° 0 mm 4 mps 750 mmHg 41%
    17:00 +29°C° 0 mm 4 mps 750 mmHg 46%
    18:00 +27°C° 0 mm 4 mps 750 mmHg 52%
    19:00 +26°C° 0 mm 4 mps 750 mmHg 57%
    20:00 +25°C° 0 mm 3 mps 751 mmHg 61%
    21:00 +24°C° 0 mm 3 mps 751 mmHg 65%
    22:00 +22°C° 0 mm 3 mps 752 mmHg 69%
    23:00 +21°C° 0 mm 3 mps 752 mmHg 72%

    Day after tomorrow, 21 August, Tuesday

    Time Temperature Precipitation Wind Pressure Humidity
    00:00 +21°C° 0 mm 3 mps 752 mmHg 75%
    01:00 +20°C° 0 mm 3 mps 753 mmHg 77%
    02:00 +19°C° 0 mm 3 mps 753 mmHg 77%
    03:00 +18°C° 0 mm 2 mps 753 mmHg 77%
    04:00 +18°C° 0 mm 2 mps 753 mmHg 77%
    05:00 +18°C° 0 mm 3 mps 754 mmHg 73%
    06:00 +18°C° 0 mm 3 mps 754 mmHg 68%
    07:00 +18°C° 0 mm 3 mps 755 mmHg 64%
    08:00 +19°C° 0 mm 3 mps 755 mmHg 58%
    09:00 +21°C° 0 mm 4 mps 755 mmHg 52%
    10:00 +22°C° 0 mm 4 mps 755 mmHg 47%
    11:00 +23°C° 0 mm 4 mps 755 mmHg 43%
    12:00 +25°C° 0 mm 4 mps 755 mmHg 39%
    13:00 +25°C° 0 mm 3 mps 755 mmHg 35%
    14:00 +26°C° 0 mm 3 mps 755 mmHg 35%
    15:00 +26°C° 0 mm 3 mps 754 mmHg 34%
    16:00 +26°C° 0 mm 3 mps 754 mmHg 34%
    17:00 +24°C° 0 mm 2 mps 754 mmHg 38%
    18:00 +23°C° 0 mm 2 mps 754 mmHg 43%
    19:00 +20°C° 0 mm 2 mps 754 mmHg 48%
    20:00 +20°C° 0 mm 1 mps 755 mmHg 50%
    21:00 +19°C° 0 mm 1 mps 755 mmHg 52%
    22:00 +19°C° 0 mm 1 mps 755 mmHg 54%
    23:00 +18°C° 0 mm 1 mps 755 mmHg 56%

    22 August, Wednesday

    Time Temperature Precipitation Wind Pressure Humidity
    00:00 +18°C° 0 mm 1 mps 755 mmHg 58%
    01:00 +16°C° 0 mm 1 mps 755 mmHg 60%
    02:00 +16°C° 0 mm 1 mps 755 mmHg 62%
    03:00 +16°C° 0 mm 1 mps 755 mmHg 63%
    04:00 +15°C° 0 mm 1 mps 755 mmHg 65%
    05:00 +16°C° 0 mm 1 mps 755 mmHg 63%
    06:00 +18°C° 0 mm 1 mps 755 mmHg 61%
    07:00 +20°C° 0 mm 1 mps 755 mmHg 59%
    08:00 +20°C° 0 mm 2 mps 755 mmHg 53%
    09:00 +23°C° 0 mm 2 mps 755 mmHg 48%
    10:00 +25°C° 0 mm 3 mps 755 mmHg 43%
    11:00 +26°C° 0 mm 3 mps 755 mmHg 40%
    12:00 +27°C° 0 mm 3 mps 754 mmHg 37%
    13:00 +28°C° 0 mm 3 mps 754 mmHg 34%
    14:00 +28°C° 0 mm 3 mps 753 mmHg 34%
    15:00 +28°C° 0 mm 3 mps 753 mmHg 33%
    16:00 +29°C° 0 mm 2 mps 753 mmHg 33%
    17:00 +27°C° 0 mm 2 mps 753 mmHg 38%
    18:00 +25°C° 0 mm 2 mps 752 mmHg 42%
    19:00 +23°C° 0 mm 2 mps 752 mmHg 47%
    20:00 +23°C° 0 mm 2 mps 752 mmHg 49%
    21:00 +21°C° 0 mm 2 mps 753 mmHg 51%
    22:00 +20°C° 0 mm 2 mps 753 mmHg 53%
    23:00 +19°C° 0 mm 2 mps 752 mmHg 56%

    23 August, Thursday

    Time Temperature Precipitation Wind Pressure Humidity
    00:00 +19°C° 0 mm 2 mps 752 mmHg 59%
    01:00 +18°C° 0 mm 2 mps 752 mmHg 63%
    02:00 +18°C° 0 mm 2 mps 752 mmHg 65%
    03:00 +18°C° 0 mm 2 mps 752 mmHg 67%
    04:00 +17°C° 0 mm 2 mps 752 mmHg 69%
    05:00 +18°C° 0 mm 2 mps 752 mmHg 67%
    06:00 +19°C° 0 mm 2 mps 752 mmHg 64%
    07:00 +21°C° 0 mm 2 mps 752 mmHg 62%
    08:00 +24°C° 0 mm 2 mps 751 mmHg 55%
    09:00 +26°C° 0 mm 2 mps 751 mmHg 47%
    10:00 +28°C° 0 mm 1 mps 751 mmHg 40%
    11:00 +29°C° 0 mm 1 mps 751 mmHg 37%
    12:00 +31°C° 0 mm 1 mps 750 mmHg 34%
    13:00 +32°C° 0 mm 1 mps 750 mmHg 31%
    14:00 +32°C° 0 mm 1 mps 750 mmHg 31%
    15:00 +32°C° 0 mm 1 mps 749 mmHg 30%
    16:00 +32°C° 0 mm 1 mps 749 mmHg 30%
    17:00 +30°C° 0 mm 1 mps 749 mmHg 34%
    18:00 +28°C° 0 mm 1 mps 749 mmHg 38%
    19:00 +26°C° 0 mm 2 mps 748 mmHg 42%
    20:00 +25°C° 0 mm 2 mps 749 mmHg 44%
    21:00 +25°C° 0 mm 2 mps 749 mmHg 45%
    22:00 +24°C° 0 mm 2 mps 749 mmHg 47%
    23:00 +23°C° 0 mm 2 mps 748 mmHg 49%

    24 August, Friday

    Time Temperature Precipitation Wind Pressure Humidity
    00:00 +23°C° 0 mm 2 mps 748 mmHg 50%
    01:00 +21°C° 0 mm 2 mps 748 mmHg 52%
    02:00 +21°C° 0 mm 2 mps 747 mmHg 54%
    03:00 +21°C° 0 mm 2 mps 747 mmHg 57%
    04:00 +21°C° 0 mm 2 mps 747 mmHg 59%
    05:00 +23°C° 0 mm 2 mps 746 mmHg 59%
    06:00 +24°C° 0 mm 2 mps 746 mmHg 58%
    07:00 +25°C° 0 mm 2 mps 746 mmHg 58%
    08:00 +27°C° 0 mm 3 mps 746 mmHg 52%
    09:00 +29°C° 0 mm 3 mps 746 mmHg 47%
    10:00 +31°C° 0 mm 3 mps 746 mmHg 41%
    11:00 +33°C° 0 mm 3 mps 745 mmHg 40%
    12:00 +33°C° 0 mm 4 mps 745 mmHg 38%
    13:00 +34°C° 0 mm 4 mps 744 mmHg 37%
    14:00 +33°C° 0 mm 4 mps 744 mmHg 40%
    15:00 +33°C° 0 mm 4 mps 744 mmHg 43%
    16:00 +32°C° 0 mm 4 mps 744 mmHg 45%
    17:00 +29°C° 0 mm 4 mps 743 mmHg 51%
    18:00 +28°C° 0 mm 3 mps 743 mmHg 56%
    19:00 +26°C° 0 mm 3 mps 743 mmHg 61%
    20:00 +25°C° 0.3 mm 3 mps 744 mmHg 66%
    21:00 +24°C° 0.3 mm 2 mps 744 mmHg 71%
    22:00 +23°C° 0.3 mm 2 mps 744 mmHg 77%
    23:00 +23°C° 0.5 mm 2 mps 744 mmHg 80%
    Show more